FW1929 Weather Reports


time (UTC)temp
C
wind
direction
speed
KPH
gust
KPH
rain 1hr
cm
rain 24hr
cm
rain mn
cm
humidity
%
barometer
mb
20260510223047 14 4 0.0 6.4 0.00 0.00 0.00 51 1024.6
20260510221514 14 4 1.6 14.5 0.00 0.00 0.00 52 1024.7
20260510220054 14 4 3.2 16.1 0.00 0.00 0.00 53 1024.8
20260510214513 13 4 3.2 14.5 0.00 0.00 0.00 54 1024.9
20260510213100 13 4 3.2 8.0 0.00 0.00 0.00 55 1025.1
20260510211508 13 4 0.0 16.1 0.00 0.00 0.00 56 1025.2
20260510210111 12 4 0.0 9.7 0.00 0.00 0.00 58 1025.2
20260510204521 12 4 0.0 8.0 0.00 0.00 0.00 58 1025.3
20260510203111 12 4 1.6 8.0 0.00 0.00 0.00 60 1025.3
20260510201536 11 4 1.6 9.7 0.00 0.00 0.00 60 1025.3
20260510200128 11 4 0.0 8.0 0.00 0.00 0.00 61 1025.3
20260510194532 11 4 0.0 4.8 0.00 0.00 0.00 62 1025.3
20260510193123 11 4 1.6 8.0 0.00 0.00 0.00 63 1025.3
20260510191547 10 4 0.0 1.6 0.00 0.00 0.00 65 1025.1
20260510190006 10 4 1.6 12.9 0.00 0.00 0.00 65 1024.9
20260510184554 10 4 0.0 0.0 0.00 0.00 0.00 67 1024.8
20260510183026 10 4 1.6 8.0 0.00 0.00 0.00 68 1024.9
20260510181615 10 4 0.0 0.0 0.00 0.00 0.00 69 1024.9
20260510180054 10 4 0.0 6.4 0.00 0.00 0.00 70 1024.7
20260510174503 9 4 0.0 3.2 0.00 0.00 0.00 73 1024.7
20260510173058 8 4 0.0 4.8 0.00 0.00 0.00 75 1024.6
20260510171518 8 4 0.0 3.2 0.00 0.00 0.00 77 1024.6
20260510170119 8 4 3.2 9.7 0.00 0.00 0.00 78 1024.6
20260510164547 8 4 1.6 12.9 0.00 0.00 0.00 80 1024.6
20260510163125 7 4 6.4 14.5 0.00 0.00 0.00 81 1024.5
20260510161547 7 4 6.4 16.1 0.00 0.00 0.00 84 1024.3
20260510160127 6 4 1.6 8.0 0.00 0.00 0.00 85 1024.0
20260510154541 6 4 0.0 3.2 0.00 0.00 0.00 85 1024.1
20260510153132 6 4 0.0 0.0 0.00 0.00 0.00 85 1024.2
20260510150036 6 4 0.0 4.8 0.00 0.00 0.00 86 1023.7
20260510144531 6 4 0.0 3.2 0.00 0.00 0.00 85 1023.6
20260510143039 6 4 0.0 0.0 0.00 0.00 0.00 86 1023.4
20260510141527 5 4 0.0 1.6 0.00 0.00 0.00 86 1023.4
20260510140027 5 4 0.0 0.0 0.00 0.00 0.00 86 1023.4
20260510134524 5 4 1.6 8.0 0.00 0.00 0.00 86 1023.2
20260510133020 5 4 0.0 1.6 0.00 0.00 0.00 87 1023.2
20260510131518 5 4 0.0 1.6 0.00 0.00 0.00 87 1022.9
20260510130021 5 4 0.0 3.2 0.00 0.00 0.00 87 1022.5
20260510124515 5 4 0.0 8.0 0.00 0.00 0.00 87 1022.5
20260510123012 5 4 0.0 0.0 0.00 0.00 0.00 88 1022.2
20260510121508 5 4 0.0 0.0 0.00 0.00 0.00 88 1022.0
20260510120007 5 4 0.0 1.6 0.00 0.00 0.00 88 1021.7
20260510114509 5 4 0.0 4.8 0.00 0.00 0.00 88 1021.6
20260510113108 5 4 0.0 0.0 0.00 0.00 0.00 88 1021.7
20260510111521 5 4 0.0 3.2 0.00 0.00 0.00 88 1021.6
20260510110108 5 4 0.0 6.4 0.00 0.00 0.00 88 1021.7
20260510104530 5 4 1.6 6.4 0.00 0.00 0.00 88 1021.8
20260510103116 5 4 3.2 6.4 0.00 0.00 0.00 88 1021.8
20260510101529 5 4 1.6 6.4 0.00 0.00 0.00 88 1021.5
20260510100116 5 8 0.0 8.0 0.00 0.00 0.00 87 1021.4
20260510094546 5 4 3.2 9.7 0.00 0.00 0.00 87 1021.3
20260510093010 5 4 3.2 8.0 0.00 0.00 0.00 86 1021.2
20260510091613 5 359 3.2 9.7 0.00 0.00 0.00 86 1021.0
20260510090020 5 4 0.0 8.0 0.00 0.00 0.00 85 1020.8
20260510084616 5 4 1.6 9.7 0.00 0.00 0.00 85 1020.8
20260510083032 5 4 6.4 12.9 0.00 0.00 0.00 83 1020.8
20260510081620 6 4 9.7 16.1 0.00 0.00 0.00 81 1020.7
20260510080037 6 4 6.4 14.5 0.00 0.00 0.00 79 1020.6
20260510074630 6 4 12.9 22.5 0.00 0.00 0.00 79 1020.7
20260510073051 6 4 9.7 29.0 0.00 0.00 0.00 78 1020.6
20260510071636 7 4 19.3 33.8 0.00 0.00 0.00 76 1020.3
20260510070055 7 4 20.9 32.2 0.00 0.00 0.00 74 1020.1
20260510064536 7 4 22.5 35.4 0.00 0.00 0.00 72 1020.0
20260510063107 8 10 27.4 41.8 0.00 0.00 0.00 70 1019.8
20260510061552 8 4 24.1 37.0 0.00 0.00 0.00 69 1019.4
20260510060014 9 4 24.1 43.5 0.00 0.00 0.00 66 1018.9
20260510054610 9 4 30.6 49.9 0.00 0.00 0.00 65 1018.6
20260510053035 10 4 25.7 43.5 0.00 0.00 0.00 62 1017.9
20260510051626 10 4 30.6 49.9 0.00 0.00 0.00 60 1017.8
20260510050058 11 4 20.9 43.5 0.00 0.00 0.00 56 1017.7
20260510044508 13 4 30.6 45.1 0.00 0.00 0.00 43 1016.6
20260510043100 15 4 6.4 19.3 0.00 0.00 0.00 32 1015.1
20260510041509 15 4 4.8 12.9 0.00 0.00 0.00 29 1014.9
20260510040051 15 4 8.0 17.7 0.00 0.00 0.00 30 1014.5
20260510034517 15 4 3.2 9.7 0.00 0.00 0.00 32 1014.7
20260510033115 14 4 1.6 6.4 0.00 0.00 0.00 34 1014.8
20260510031532 15 4 1.6 8.0 0.00 0.00 0.00 33 1014.6
20260510030122 15 4 3.2 6.4 0.00 0.00 0.00 33 1014.3
20260510024549 15 4 3.2 6.4 0.00 0.00 0.00 32 1014.0
20260510023003 15 4 3.2 8.0 0.00 0.00 0.00 32 1013.9
20260510021634 16 4 4.8 14.5 0.00 0.00 0.00 31 1013.9
20260510020057 16 4 12.9 19.3 0.00 0.00 0.00 30 1013.5
20260510014632 16 4 6.4 12.9 0.00 0.00 0.00 29 1013.5
20260510013054 16 8 8.0 19.3 0.00 0.00 0.00 28 1013.2
20260510011514 17 4 14.5 29.0 0.00 0.00 0.00 27 1012.9
20260510010105 17 4 16.1 25.7 0.00 0.00 0.00 26 1012.2
20260510004510 17 4 6.4 20.9 0.00 0.00 0.00 26 1012.0
20260510003132 17 4 12.9 20.9 0.00 0.00 0.00 25 1011.7
20260510001539 18 4 11.3 32.2 0.00 0.00 0.00 25 1011.5
20260510000002 20 4 11.3 20.9 0.00 0.00 0.00 19 1010.9
20260509234623 20 4 4.8 12.9 0.00 0.00 0.00 18 1010.7
20260509233034 20 4 4.8 16.1 0.00 0.00 0.00 20 1010.5
20260509231614 21 4 4.8 14.5 0.00 0.00 0.00 21 1010.6
20260509230031 20 4 1.6 9.7 0.00 0.00 0.00 21 1010.5
20260509224621 20 4 1.6 14.5 0.00 0.00 0.00 22 1010.5